Back to catalog

METEOR M2-3

AliveWeatherSSO
NORAD 57166·PAYLOAD·🇷🇺 Russia

Launched Jun 27, 2023 from Vostochny Cosmodrome

Loading…

Next Passes (next 24 hours)

TLE

FreshSource: Space-Track

Epoch: Sep 14, 2026, 14:41 UTC

1 57166U 23091A   26257.61240375 -.00000021  00000-0  95360-5 0  9992
2 57166  98.5996 310.7212 0002798 269.8227  90.2631 14.24052502167247

Track METEOR M2-3 in real time with AllMySat

Download on the App Store